User: anonymous   Login
Location: Prague
(50.0830°N, 14.4670°E)
Time: 18:27:49
(UTC+01:00)
Language:

LilacSat-2 - Orbit

View from above orbital plane
View from above orbital plane
View from above satellite
View from above satellite

Ground track
Ground track

The orbit data is extracted from the following two-line orbital elements,

1 40908U 15049K   21337.08253784  .00001091  00000-0  62350-4 0  9994
2 40908  97.5113 334.8777 0015109 342.8447  90.4741 15.14741590342759
Epoch (UTC): 03 December 2021 01:58:51
Eccentricity: 0.0015109
inclination: 97.5113°
perigee height: 511 km
apogee height: 532 km
right ascension of ascending node: 334.8777°
argument of perigee: 342.8447°
revolutions per day: 15.14741590
mean anomaly at epoch: 90.4741°
orbit number at epoch: 34275

The dashed part of the orbit path shows where the satellite is in the earth's shadow,  

DLR